Wind_Speed
15 15 16 18 19 20 20 19 19 19 20 21 22 22 22 23 23 21 19 19 19 19 18 16 14 14 13 13 13 12 13 13 13 12 11 9 9 9 8 8 9 9 10 11 11 11 11 11 11 12 12 12 13 13 13 14 15 14 13 13 12 12 12 12 11 11 10 11 11 11 11 11 11 11 12 12 12 12 12 12 13 13 13 14 14
16 17 18 18 18 17 18 19 21 22 23 23 23 23 23 22 21 19 19 19 19 18 17 15 15 14 13 13 13 13 13 14 13 12 11 10 10 10 10 10 10 10 11 12 12 11 11 12 13 13 13 13 14 13 14 15 16 15 13 13 13 13 13 13 12 12 12 11 11 11 12 11 11 11 12 12 12 12 13 13 13 14 15 16 16
14 17 18 18 17 15 15 16 19 22 23 23 22 22 21 20 19 18 19 19 18 17 16 16 15 14 13 13 13 13 13 13 12 12 11 12 12 12 12 12 12 11 12 12 11 11 12 13 14 15 15 15 15 15 16 17 18 17 16 15 15 16 15 15 14 14 15 14 13 12 13 13 13 13 12 12 12 13 14 15 17 18 18 19 20
12 14 14 15 15 16 16 16 18 19 19 20 20 19 19 18 17 17 18 19 18 17 17 17 15 14 14 13 13 12 12 11 10 10 11 11 12 13 13 13 13 13 13 13 13 14 15 16 16 17 17 17 17 17 18 19 20 19 19 19 19 18 18 18 18 18 18 17 16 15 14 13 13 13 12 12 14 16 18 20 21 22 22 23 24
11 11 12 13 14 16 18 20 19 17 16 16 17 16 16 16 16 18 19 20 20 20 19 17 16 15 15 14 14 13 11 10 9 9 10 11 11 12 13 13 13 13 13 14 15 17 18 19 19 19 18 19 20 20 20 21 22 22 22 22 22 21 20 20 20 20 20 19 18 17 16 15 14 14 15 16 19 21 24 26 27 27 27 27 27
12 13 12 13 14 14 16 18 18 17 14 14 16 16 17 18 19 20 21 22 23 22 21 20 18 17 16 15 15 14 13 12 12 13 13 13 13 13 14 14 14 15 15 16 18 20 21 21 21 21 21 22 23 23 23 23 23 23 24 25 25 24 24 23 23 23 21 20 19 18 18 18 18 18 19 21 23 25 28 29 30 31 31 31 31
11 11 10 14 16 14 14 16 17 18 16 14 14 16 18 19 20 22 22 23 24 24 24 23 21 20 18 16 15 14 15 16 16 16 16 16 17 17 17 17 17 18 20 21 22 24 24 23 22 23 24 25 25 25 26 26 26 26 26 27 27 28 27 27 27 26 25 23 22 22 21 21 21 22 23 25 26 28 30 32 33 34 35 36 36
8 8 8 11 13 12 13 15 16 18 18 15 14 17 20 20 21 21 21 21 23 24 24 24 23 22 20 18 17 16 18 18 19 19 19 20 21 22 21 21 21 22 22 23 25 26 27 25 23 24 25 26 26 26 26 27 28 28 28 29 30 30 29 29 29 29 28 27 25 25 25 25 25 26 27 28 29 31 33 34 35 36 37 37 38
8 9 9 10 10 11 13 14 14 16 18 17 15 16 19 20 20 18 16 16 18 20 22 23 23 23 22 21 21 21 21 21 22 22 23 23 24 25 24 23 23 24 24 25 26 27 27 27 27 28 30 29 29 28 28 28 28 29 30 31 32 32 31 31 31 30 30 30 29 29 29 29 30 31 32 33 34 35 36 37 37 37 37 38 39
9 9 10 11 10 11 12 13 14 15 16 18 17 16 17 18 18 18 16 15 15 17 19 20 21 22 22 22 22 23 24 25 25 25 25 26 26 25 24 24 25 26 27 28 29 29 30 31 32 34 34 33 32 31 31 30 30 31 32 33 35 35 34 32 32 32 32 32 32 32 32 33 33 34 35 36 37 38 38 38 38 38 38 39 40
10 10 12 11 10 11 11 13 15 16 16 17 16 17 18 16 17 18 17 17 17 17 18 19 20 20 21 22 23 25 26 28 28 28 29 28 27 27 27 28 29 30 30 31 32 32 33 34 34 36 36 35 34 33 32 32 33 33 33 33 34 35 35 34 33 33 33 33 33 34 34 35 36 37 37 38 39 39 39 39 39 39 39 39 40
14 13 15 14 14 14 13 13 15 15 15 14 12 15 16 15 16 17 18 19 19 20 21 22 23 23 23 25 26 27 29 30 31 32 32 31 31 31 31 32 33 33 33 34 34 35 36 36 36 37 36 36 35 34 34 34 34 34 33 32 32 33 34 34 33 32 32 32 33 34 36 37 38 39 39 39 40 41 41 41 40 39 39 38 38
20 21 21 19 20 22 20 17 18 18 18 17 17 20 22 20 19 20 21 22 23 24 25 26 26 26 26 27 28 30 31 32 33 34 34 34 34 34 34 35 35 35 35 36 36 36 37 39 39 39 38 37 36 37 37 36 33 32 33 33 33 34 34 32 31 31 31 32 34 35 37 38 39 40 40 41 41 40 39 39 38 38 38 39 40
24 25 24 23 24 26 25 24 26 27 27 27 28 29 28 25 23 24 25 26 27 28 28 29 29 29 29 30 31 32 34 35 36 36 37 37 37 37 37 37 37 38 39 38 38 38 39 40 40 40 40 39 39 40 40 38 35 33 33 35 36 37 36 34 33 33 33 34 35 37 38 38 39 40 41 41 40 39 38 37 38 39 40 42 43
27 26 26 26 26 26 27 28 29 31 33 33 32 31 30 30 29 29 29 30 30 31 32 33 33 34 33 33 33 35 37 38 38 39 39 39 39 39 40 40 41 42 42 41 40 41 41 41 41 41 41 40 41 41 41 40 38 36 34 35 37 39 39 39 39 38 37 37 37 38 39 40 41 41 41 40 38 37 38 38 40 42 43 44 45
32 32 31 31 31 31 32 33 33 33 35 36 36 36 36 36 36 35 34 35 35 36 37 37 37 37 38 37 37 38 39 40 40 40 41 41 41 41 42 42 43 43 43 42 41 41 41 41 42 42 42 42 42 43 43 43 42 40 36 35 39 43 44 45 43 41 40 39 39 39 40 41 42 42 41 40 39 38 39 41 43 45 46 46 47
37 37 36 35 37 38 38 38 39 39 39 40 40 40 41 41 41 40 39 39 39 39 40 40 40 40 40 41 40 39 40 40 41 42 42 43 43 43 43 44 44 44 44 42 41 41 41 41 42 42 42 43 44 45 45 45 44 43 40 39 42 45 48 49 46 44 43 42 41 42 42 42 42 42 41 41 40 41 42 44 46 48 49 49 48
39 39 39 39 39 40 40 40 41 40 41 42 43 43 44 45 45 44 44 43 43 43 43 42 42 43 43 42 41 40 41 42 43 44 44 45 45 45 45 45 45 45 44 43 42 43 43 44 44 44 44 46 47 48 48 48 47 46 45 44 44 44 46 47 46 45 45 44 44 43 43 43 43 42 43 43 43 44 46 47 49 51 51 51 49
41 41 42 42 42 42 42 42 42 42 42 43 45 45 46 48 48 49 49 49 49 48 46 44 43 43 42 42 43 43 44 46 46 46 47 47 47 47 47 47 47 47 46 45 45 45 46 47 48 49 49 49 49 49 50 50 50 48 47 46 46 46 46 48 48 48 47 45 44 44 44 44 44 44 44 45 46 48 49 50 51 53 53 51 48
43 42 42 42 43 43 43 44 44 44 45 45 46 48 49 51 52 53 53 53 52 51 50 47 44 43 43 44 46 48 48 49 50 50 50 50 50 51 51 51 51 51 50 48 47 48 48 48 49 50 50 50 50 51 51 51 50 50 49 49 49 49 49 50 50 49 47 45 45 45 46 45 45 45 46 47 49 50 51 52 53 54 54 51 47
41 41 41 41 42 43 44 46 47 47 47 48 48 50 52 53 53 53 53 52 52 52 51 50 50 49 49 49 51 52 52 53 53 53 53 54 54 55 55 55 55 54 53 51 50 50 50 50 50 50 50 50 51 52 53 53 53 53 52 51 50 51 51 50 49 48 47 45 45 45 46 46 46 46 47 48 50 52 53 53 55 55 53 50 47
40 39 39 39 39 40 42 44 46 47 48 49 50 50 51 51 51 51 51 52 53 53 54 54 56 56 56 56 55 56 56 56 56 57 57 57 58 58 58 59 58 57 55 54 52 51 52 51 51 50 50 51 52 53 54 54 54 54 54 53 53 53 52 50 49 49 47 45 44 45 46 47 47 48 49 50 52 53 54 55 55 54 52 50 49
45 44 43 42 42 42 43 45 47 48 49 50 51 51 51 52 53 54 54 55 56 58 59 60 61 61 61 61 60 60 60 60 60 60 61 61 61 60 60 60 60 59 57 55 53 52 50 48 48 48 49 50 51 51 52 53 54 55 56 56 56 55 54 53 51 51 50 48 47 48 50 50 51 52 53 54 55 55 56 56 55 53 51 50 49
47 47 47 47 47 48 49 50 52 53 54 55 56 57 58 59 60 60 60 60 61 62 63 64 64 64 64 64 64 64 63 62 62 63 62 61 61 61 60 59 59 58 57 54 52 51 48 45 45 47 48 49 50 51 53 54 55 56 56 56 57 57 57 56 55 54 53 52 52 52 53 54 55 55 56 56 57 57 57 56 54 52 51 51 51
47 48 49 49 50 51 52 53 54 56 57 59 60 61 62 63 64 65 65 65 65 65 65 65 66 66 66 66 66 66 65 63 63 64 63 61 60 60 59 57 56 55 54 51 50 49 48 46 46 46 47 47 48 48 49 51 52 53 55 56 57 57 58 58 57 56 55 55 54 55 55 55 55 55 55 55 55 54 54 53 51 51 51 51 51
48 50 51 52 53 54 55 56 57 58 59 60 61 63 63 64 65 66 67 68 68 68 68 68 67 67 67 67 66 66 66 65 65 66 65 62 60 59 57 55 54 54 52 49 47 47 46 45 44 45 45 44 44 44 46 49 51 52 53 55 55 56 56 56 56 56 56 55 55 54 53 53 53 54 54 53 51 50 50 50 50 50 50 50 51
52 53 54 55 56 57 58 59 59 60 61 62 63 64 65 66 66 67 68 69 70 70 70 70 69 69 69 68 68 68 67 67 66 66 65 62 59 58 56 52 51 52 52 49 46 46 44 43 44 45 46 46 47 48 48 48 48 49 50 51 52 52 52 52 52 52 52 52 53 52 52 52 52 53 52 51 50 49 50 50 51 51 51 52 53
56 57 58 58 59 59 60 60 61 61 62 63 64 65 66 66 67 68 69 70 70 70 71 70 70 70 69 68 68 67 66 66 65 63 63 62 58 55 55 54 52 50 50 49 47 45 44 45 46 45 46 48 49 48 47 46 47 47 47 48 48 48 48 47 47 47 47 47 48 49 49 50 50 50 50 50 51 51 52 52 53 53 54 55 55
59 59 59 59 60 60 61 61 62 62 63 64 65 65 66 67 67 67 67 68 68 68 68 67 67 66 65 65 64 63 62 62 62 61 62 61 56 52 54 57 54 50 48 49 48 44 43 44 44 44 47 49 48 47 46 46 45 44 43 43 43 43 43 43 43 43 43 44 44 45 46 47 48 48 49 50 51 51 52 53 54 54 55 55 55
60 61 61 61 62 63 63 64 64 65 66 66 66 67 67 67 67 66 65 65 65 65 64 64 63 62 62 61 62 62 60 59 59 59 59 58 56 53 55 57 56 51 48 48 47 42 40 39 40 43 46 47 46 44 42 39 39 41 41 41 40 39 39 39 40 40 41 42 42 43 44 45 45 47 48 49 50 51 52 52 52 52 52 52 52
61 62 62 63 64 64 65 65 65 66 66 66 65 65 65 64 64 63 62 61 60 60 60 60 60 60 60 59 60 60 59 58 57 57 56 56 55 53 54 54 53 49 45 43 40 37 36 38 39 42 44 44 42 39 36 35 38 41 41 41 40 39 38 38 37 38 38 39 41 42 44 46 49 51 52 52 52 51 50 48 47 46 45 44 43
58 59 59 59 60 60 60 59 59 59 58 58 57 57 56 55 55 55 55 54 53 53 52 52 53 53 54 55 55 55 55 54 53 52 52 52 51 51 51 52 50 47 47 44 39 37 38 40 40 41 42 41 40 38 37 38 41 40 38 37 36 35 36 36 36 37 39 41 43 45 47 48 49 48 47 46 44 42 39 38 36 35 35 35 36
52 51 51 51 50 50 50 49 49 48 48 47 46 45 45 44 44 44 45 45 45 45 45 44 45 46 47 48 49 49 49 48 47 46 45 45 45 45 48 50 51 50 51 50 44 40 41 41 38 37 38 40 42 42 40 39 38 35 32 32 32 33 34 35 35 36 38 40 42 44 43 41 39 37 35 34 32 31 29 28 28 28 30 31 33
44 44 43 43 42 41 40 39 39 38 37 36 36 36 36 36 37 37 37 38 39 41 42 42 42 44 46 47 47 47 47 47 45 42 41 40 40 41 43 47 51 51 53 55 50 42 37 35 33 32 34 37 39 39 38 36 35 33 32 33 34 34 33 32 32 33 35 37 38 38 36 34 32 31 29 27 25 24 23 23 24 26 28 30 33
38 38 37 36 34 33 32 31 30 30 30 30 31 32 33 34 34 35 35 36 38 41 45 46 47 48 51 52 53 52 52 50 47 44 41 39 38 39 40 42 46 48 51 55 54 47 40 35 31 31 33 35 36 37 37 35 33 33 34 35 35 34 32 31 32 34 34 34 34 33 31 31 29 27 25 24 22 21 20 21 22 24 27 30 33
32 31 30 29 28 27 26 26 26 27 28 29 30 31 32 33 34 36 38 40 42 45 49 52 53 54 55 55 55 54 53 53 51 48 44 41 39 38 37 37 39 41 44 49 54 53 44 37 35 35 36 36 36 36 35 32 30 30 32 33 32 32 32 33 34 34 32 31 31 30 29 28 26 24 23 22 20 19 19 20 22 23 25 29 32
25 25 24 24 25 25 25 26 27 28 29 30 31 32 33 34 37 38 41 44 47 50 52 53 53 52 51 49 48 47 47 48 49 49 46 43 40 37 35 35 35 36 38 43 50 52 42 32 32 36 34 29 28 28 26 25 26 28 29 29 30 30 31 32 32 31 29 29 29 29 27 26 24 22 21 20 18 18 19 20 21 22 24 27 29
21 22 22 23 24 25 26 27 28 29 30 31 32 34 35 36 38 40 44 48 50 50 49 46 43 41 39 38 37 37 38 39 41 42 43 43 40 36 34 33 33 34 35 37 44 51 46 34 30 34 34 28 26 25 22 22 25 27 28 29 29 30 30 30 29 28 28 28 27 26 25 24 22 21 20 18 18 18 18 19 20 21 22 24 25
21 22 23 23 24 25 26 27 28 30 31 32 33 34 35 35 38 42 46 46 44 42 40 38 36 34 32 31 31 31 31 32 33 35 38 39 37 34 33 31 30 30 30 31 36 47 52 46 37 33 31 29 28 26 25 26 28 27 27 27 28 28 28 28 27 26 26 26 25 24 23 23 22 20 19 18 18 18 18 19 19 20 21 22 23
20 20 21 22 23 24 25 26 28 29 30 31 31 31 33 36 40 41 39 36 35 34 33 29 26 23 22 21 22 22 23 24 25 27 30 32 32 30 28 27 25 22 22 24 27 36 47 52 49 41 35 33 33 32 32 31 28 26 25 25 26 26 26 26 25 25 25 24 23 23 22 22 21 20 19 18 17 16 17 18 19 19 19 21 22
18 18 19 20 21 22 23 25 25 26 27 27 27 29 33 36 35 31 27 27 27 23 16 10 6 5 4 5 7 9 11 14 18 21 23 26 27 26 23 23 22 21 20 23 26 29 34 43 49 49 43 37 34 33 31 29 27 25 24 24 24 26 26 25 25 25 25 24 22 22 22 21 20 20 19 18 16 16 17 18 18 18 18 20 21
15 16 16 17 18 19 20 20 21 22 23 23 24 28 31 29 25 21 20 21 19 11 3 6 6 4 3 2 1 2 4 8 13 16 18 20 23 24 23 24 25 24 23 26 30 32 31 32 37 42 43 39 35 32 31 29 28 27 26 25 26 27 27 27 27 26 24 22 21 21 21 21 21 20 19 17 15 15 16 17 18 18 17 18 19
13 13 13 14 14 15 16 17 17 18 19 19 23 27 27 22 18 17 16 14 12 7 1 3 4 2 1 1 3 4 3 4 6 9 11 15 18 20 21 22 21 22 23 25 28 30 31 29 30 33 36 36 34 33 31 30 30 29 28 28 28 28 28 28 28 26 23 21 21 21 21 21 21 20 19 16 15 15 16 17 17 17 17 17 17
12 12 12 13 13 14 15 15 16 16 17 18 22 25 23 19 16 15 13 9 7 4 1 2 3 4 5 4 5 6 7 7 8 8 10 12 15 17 20 21 19 17 17 18 20 22 25 28 30 30 30 28 28 28 28 28 29 29 28 28 28 29 29 29 26 23 21 21 21 22 22 22 22 20 18 16 15 15 15 16 16 16 16 15 15
12 12 12 13 13 14 15 16 15 15 16 17 20 23 23 19 16 14 11 8 5 2 1 2 6 8 8 9 10 11 12 13 14 15 15 17 17 18 20 22 21 18 15 16 19 21 24 26 26 25 24 23 24 24 24 24 24 25 25 26 27 28 27 25 23 21 21 21 22 23 23 22 22 20 18 17 15 15 15 15 15 15 15 15 14
11 11 11 12 12 13 15 16 16 16 16 16 19 22 23 21 18 15 13 10 6 3 2 3 5 7 7 8 8 8 9 11 13 15 17 18 19 20 22 23 23 22 21 21 22 23 24 24 23 21 20 20 20 20 18 18 19 20 21 23 24 24 23 21 20 21 21 22 22 23 23 22 22 20 19 17 16 15 15 15 15 15 14 14 13
11 11 11 11 12 13 14 15 16 17 16 16 17 19 21 21 20 18 15 12 9 6 5 5 6 6 5 5 5 6 7 7 7 9 11 11 11 14 20 25 26 24 24 24 24 22 21 21 20 19 19 18 16 15 14 14 16 17 18 20 21 21 20 20 20 21 21 22 22 22 22 22 21 20 19 18 17 16 16 16 15 14 14 13 13
10 10 10 11 11 13 14 15 16 17 17 16 16 16 17 18 18 18 16 14 11 9 8 7 8 8 7 8 9 10 10 9 8 5 5 6 5 6 12 19 22 22 22 23 23 22 20 19 18 18 17 16 14 12 12 13 14 16 17 18 19 19 19 19 20 20 21 21 21 21 21 21 21 20 19 18 17 17 17 16 15 14 14 13 12
10 10 10 10 11 12 13 14 14 15 16 16 16 15 15 15 15 15 15 14 13 11 9 8 8 8 9 10 10 10 10 11 9 7 7 8 7 6 8 12 16 17 19 21 21 19 19 19 18 17 16 14 13 12 12 13 14 16 17 17 18 18 19 19 20 20 20 19 19 20 20 20 20 20 19 19 18 17 17 16 16 15 14 13 12
11 11 11 11 11 12 12 13 13 14 15 15 16 15 15 14 14 13 13 13 12 12 10 9 8 8 9 9 9 8 8 8 8 8 9 12 12 10 9 11 13 15 17 18 18 17 17 17 17 15 14 13 12 11 12 13 15 16 16 17 17 18 18 19 19 18 18 18 18 19 19 20 20 20 19 19 18 18 17 17 16 15 14 12 11
10 11 11 11 11 12 12 13 13 13 13 14 15 15 15 15 14 13 13 13 12 11 10 9 9 8 8 9 9 9 8 8 8 7 6 9 13 13 12 11 12 13 14 15 15 14 13 13 14 14 13 13 12 12 13 14 15 16 16 17 17 18 19 18 17 17 16 17 17 18 19 19 19 19 19 19 18 18 18 17 16 15 14 13 11
Wind_Direction
261 255 247 247 251 253 252 248 244 241 244 253 262 267 269 265 257 249 239 232 235 240 245 248 252 256 259 260 259 257 258 260 262 265 267 271 275 276 280 284 289 293 294 293 295 296 299 303 304 305 304 304 305 304 302 300 300 302 303 301 300 300 299 295 290 287 284 282 282 284 286 287 288 290 292 295 298 301 302 301 300 301 301 301 301
258 257 256 254 253 253 251 244 239 239 244 252 258 264 267 261 249 236 227 228 235 241 244 248 252 257 260 261 261 262 265 269 272 275 278 279 278 276 278 280 284 290 292 294 297 299 303 308 309 307 305 305 306 303 297 296 297 298 297 296 296 295 293 293 293 292 289 286 283 284 286 287 288 290 292 296 299 301 303 305 306 307 306 305 304
259 260 259 258 258 257 254 248 243 242 246 250 253 257 258 250 237 228 226 231 238 242 244 248 251 255 257 258 261 264 268 274 279 285 288 287 285 282 280 278 279 281 283 286 290 294 298 302 304 303 302 301 303 299 293 293 294 294 293 292 290 290 290 290 290 288 286 285 283 283 285 287 289 292 293 294 295 298 303 308 310 311 309 308 307
262 261 255 253 261 260 250 243 240 239 240 243 245 244 242 240 237 235 236 239 245 247 248 249 252 255 256 256 258 260 264 272 282 289 292 291 290 288 284 281 279 279 281 283 287 292 297 299 298 299 301 301 301 298 293 292 293 291 291 290 287 287 289 290 288 286 283 282 281 279 278 279 284 290 292 293 293 295 301 305 307 307 306 305 305
248 258 254 249 257 256 246 239 235 235 235 233 232 227 225 232 239 241 243 246 250 252 251 251 253 255 255 253 253 253 257 265 273 279 281 282 282 284 285 285 284 284 285 288 291 294 296 298 298 298 300 301 300 299 296 295 294 291 289 288 287 286 287 288 288 286 282 280 277 275 272 272 278 285 291 296 297 299 301 303 303 302 301 299 298
242 252 250 242 242 243 244 241 233 232 233 225 221 221 223 229 234 237 241 247 251 254 252 251 251 252 251 251 252 253 255 259 263 268 271 275 277 280 283 287 289 287 285 286 289 291 292 295 298 297 297 296 295 295 294 294 293 290 287 287 287 286 284 285 286 284 280 277 275 272 271 273 279 287 292 295 297 300 301 302 301 301 299 296 293
250 247 241 235 232 232 241 242 230 226 228 223 224 230 231 233 238 240 243 246 250 252 250 249 248 249 250 252 254 257 258 261 266 270 274 278 279 282 285 287 286 283 282 283 286 288 290 293 296 297 296 295 293 292 291 291 291 288 284 282 282 283 283 283 283 282 279 276 274 273 273 274 279 286 292 295 297 301 302 303 303 301 299 297 294
266 259 253 241 232 227 238 244 232 223 225 229 238 242 238 236 240 244 247 248 247 248 248 248 249 251 252 255 258 262 265 268 271 275 280 282 283 285 285 285 284 284 285 288 291 293 293 293 295 296 295 294 292 291 290 291 291 288 283 280 278 278 278 278 279 279 278 276 275 275 277 279 282 285 289 293 297 299 301 301 300 299 297 295 294
275 271 263 244 230 229 237 241 233 225 226 234 244 243 237 235 235 239 249 253 250 250 249 250 252 254 256 258 261 265 269 272 274 278 283 286 288 290 286 281 282 286 288 290 294 296 295 293 293 294 294 292 291 290 290 290 290 288 285 283 279 275 273 272 274 275 275 274 275 275 276 280 285 288 290 292 295 297 298 299 298 297 295 294 292
265 268 261 250 239 238 239 235 232 231 233 241 242 234 231 235 234 237 246 252 252 253 252 253 255 257 258 259 262 266 269 272 274 277 281 285 288 289 284 279 281 285 287 289 291 292 291 290 291 291 291 290 289 289 288 287 287 286 285 284 280 274 269 267 268 269 270 271 272 275 276 279 284 287 289 291 293 296 297 297 296 294 293 292 291
259 261 266 258 240 239 249 249 246 244 246 250 241 224 222 228 230 234 241 244 247 249 249 251 253 254 257 259 262 266 269 272 274 276 279 282 283 282 279 279 281 283 285 287 288 289 289 288 288 288 288 287 287 287 287 286 285 284 284 284 280 273 267 264 264 265 267 268 271 274 276 279 282 286 289 291 294 295 295 294 292 290 288 287 287
265 265 268 257 240 246 260 255 247 245 244 244 236 228 234 237 235 239 243 244 247 249 250 253 253 255 258 261 264 267 270 273 275 277 279 280 281 281 280 280 279 279 282 284 286 288 288 287 286 285 285 284 284 285 287 288 286 283 282 281 276 269 265 263 262 263 266 269 273 275 278 281 283 287 290 292 293 292 292 291 289 288 287 286 285
270 273 274 266 258 263 266 257 253 255 250 247 249 254 258 257 251 249 249 248 250 251 253 255 256 258 260 263 266 269 271 274 275 276 278 279 280 280 281 281 278 277 280 282 283 284 286 285 285 284 282 281 282 284 288 290 288 283 281 278 273 268 266 264 265 269 273 276 279 281 282 284 286 289 292 293 292 291 290 290 290 290 290 289 288
267 270 273 273 272 273 272 267 267 268 264 260 259 258 260 260 257 254 254 254 255 255 257 258 258 258 259 261 264 267 269 272 273 274 276 277 278 279 281 281 278 278 281 283 281 281 281 280 280 280 279 278 278 282 286 288 287 283 280 278 272 266 262 264 271 278 282 283 284 284 284 287 290 292 292 291 290 289 289 290 292 293 293 293 292
268 269 271 273 274 275 274 272 271 270 267 265 262 260 259 260 260 259 259 259 258 257 258 258 258 258 259 259 261 264 267 269 271 272 274 275 277 277 278 279 278 278 281 282 281 280 278 276 274 274 274 274 276 280 284 286 286 284 283 280 270 261 262 270 278 283 284 284 284 285 287 290 292 292 291 288 286 286 288 291 294 295 296 295 294
271 270 269 269 269 268 268 266 266 266 266 265 264 262 261 263 264 264 263 261 259 258 258 258 259 260 260 261 261 263 265 268 269 271 273 275 277 278 277 277 278 279 280 281 281 278 274 271 270 269 270 272 274 277 281 285 286 285 284 278 267 263 268 277 282 285 286 286 287 289 290 291 291 290 287 284 282 283 287 291 295 297 297 296 294
267 267 266 267 268 269 270 269 267 266 266 266 266 265 264 264 264 263 263 262 261 260 261 261 262 263 264 264 265 265 266 269 272 274 276 277 278 278 278 278 278 279 280 281 279 275 272 270 270 270 271 273 274 278 281 283 284 283 281 275 269 268 271 275 279 282 284 286 287 289 289 288 287 286 283 280 279 282 286 290 294 298 298 296 294
264 264 265 267 269 271 273 272 270 269 268 267 266 265 265 265 265 265 266 266 265 265 266 267 266 266 265 265 265 265 268 273 277 278 279 280 280 279 279 279 278 279 280 279 277 274 272 271 272 274 275 276 278 280 281 281 280 280 279 276 274 273 271 272 276 278 281 283 286 286 285 284 283 282 280 278 278 281 285 290 295 298 298 297 294
261 263 265 267 269 270 271 271 270 269 268 267 265 265 265 266 268 269 269 270 269 269 270 270 268 265 265 265 266 266 269 275 279 281 281 281 281 281 281 280 279 280 281 280 278 277 275 274 273 274 275 275 277 277 277 277 278 278 278 277 276 275 273 272 274 277 280 282 282 282 282 281 280 279 278 278 278 282 286 291 295 298 298 296 292
258 261 264 266 268 269 270 270 268 268 267 266 265 265 267 268 269 270 270 271 272 272 272 272 270 266 267 271 274 275 276 279 281 282 282 282 281 281 281 280 280 281 282 281 280 279 278 276 275 274 274 275 275 275 275 275 276 276 276 276 277 276 276 275 275 277 279 280 280 280 279 278 277 277 277 278 280 284 288 291 295 297 297 293 289
260 261 262 264 266 267 267 268 268 267 265 263 262 263 265 267 268 269 270 270 271 271 272 273 273 272 272 275 277 279 280 281 282 282 282 282 281 281 281 280 280 281 281 281 280 279 278 277 276 275 275 274 274 273 273 273 273 274 275 275 277 278 278 277 277 277 278 280 280 279 277 276 276 277 278 281 283 285 288 292 295 296 294 291 287
262 262 261 260 260 261 262 263 263 262 259 257 256 257 259 261 262 264 265 265 267 268 270 273 275 276 277 277 278 278 278 279 280 281 280 280 280 280 280 280 280 280 280 280 279 279 278 278 275 273 272 271 270 270 271 271 272 273 274 275 276 277 277 276 277 277 278 279 278 275 274 275 277 279 281 283 285 287 289 292 294 293 290 287 285
263 263 262 260 258 257 257 257 257 256 255 254 253 255 257 260 263 265 266 267 268 270 272 275 277 278 278 279 278 278 278 278 278 277 277 278 278 279 279 280 280 280 280 279 279 279 278 277 276 273 271 269 268 268 269 270 271 272 273 274 275 276 275 274 275 276 276 276 273 272 273 276 279 281 282 283 285 286 288 290 290 288 286 285 285
266 267 267 267 265 264 263 262 262 262 261 260 260 261 264 267 269 271 272 272 272 273 275 276 277 277 278 278 278 278 278 277 277 276 276 277 278 278 279 279 280 280 279 279 278 277 275 273 271 268 267 265 266 267 268 269 270 271 272 272 273 273 274 274 275 275 275 274 274 274 276 278 281 282 283 284 285 286 287 288 288 286 285 285 287
269 270 270 271 272 271 271 270 270 270 270 270 270 270 271 272 273 275 276 276 276 276 277 277 277 277 277 277 277 277 277 276 275 276 276 277 278 278 278 278 278 277 278 278 277 275 272 269 265 264 265 265 265 265 267 268 269 270 271 271 272 273 274 275 276 276 277 277 277 278 279 280 281 283 284 285 286 286 286 286 286 286 286 287 289
272 273 274 275 275 276 276 275 275 274 274 274 274 274 275 275 276 277 277 278 278 279 279 279 279 279 279 278 278 277 277 276 275 276 277 276 276 276 275 274 274 275 275 275 274 273 271 268 265 264 265 264 263 264 265 267 268 270 271 272 273 274 275 276 277 278 279 279 280 280 281 282 282 284 286 286 286 286 287 287 287 288 288 290 292
275 276 277 277 278 277 277 277 276 276 276 276 276 276 276 276 276 277 277 278 279 279 280 280 280 280 280 279 278 278 278 277 276 277 277 276 275 276 274 272 272 273 273 273 271 269 266 263 261 260 261 261 263 265 266 266 268 270 271 272 273 274 276 277 278 280 280 281 281 281 281 282 284 286 287 287 287 288 288 288 289 290 291 292 293
278 279 279 279 279 278 278 277 277 277 277 277 277 277 277 277 277 277 277 277 278 278 278 278 278 278 278 278 277 277 276 276 275 275 274 274 275 275 274 272 270 269 269 269 269 267 263 260 258 259 262 264 266 266 266 267 268 268 269 270 272 273 275 277 279 280 282 282 282 282 282 284 286 287 288 288 289 290 290 290 291 291 292 292 293
279 280 280 280 280 279 279 279 279 279 278 278 278 278 278 278 278 278 278 278 277 277 277 277 277 276 276 276 275 274 274 273 272 271 271 271 270 267 265 266 266 264 263 265 267 264 260 259 263 268 270 269 268 267 266 267 268 268 269 271 273 275 277 279 280 282 283 283 284 284 285 286 288 288 289 290 290 290 290 290 290 291 291 292 292
280 280 280 280 280 280 280 280 280 280 280 279 279 280 280 279 279 279 278 278 278 277 277 276 275 274 273 273 272 272 271 270 269 268 268 268 266 261 257 257 259 260 259 262 264 262 258 261 269 272 270 268 266 264 263 264 267 270 272 273 273 275 278 279 280 281 282 283 284 285 287 288 289 290 290 291 291 291 290 290 290 290 291 291 291
277 277 277 278 278 278 278 279 279 279 279 278 278 278 279 278 278 277 276 276 275 275 274 273 272 271 270 269 269 269 268 267 266 266 264 263 262 259 255 254 255 256 254 255 258 259 260 264 266 263 262 264 262 258 257 262 267 270 272 272 271 273 275 276 278 279 281 282 284 286 289 290 291 291 291 291 291 291 290 290 290 290 290 290 289
275 276 276 276 277 277 277 277 277 277 277 277 277 277 276 276 276 276 275 273 272 272 273 273 272 271 270 269 268 268 267 266 265 264 263 261 259 256 252 250 249 246 243 244 248 253 258 261 260 255 254 259 259 254 253 260 265 267 269 269 270 271 272 274 276 279 283 286 289 291 293 294 294 293 292 291 290 289 289 289 289 289 289 289 289
277 277 277 277 277 277 277 277 277 277 277 277 276 276 276 275 275 276 277 277 275 274 273 272 272 273 272 271 270 269 268 267 265 263 262 261 259 256 250 246 243 239 235 236 242 252 257 257 256 255 255 258 258 254 252 255 259 261 263 265 269 274 278 280 283 287 290 293 295 297 298 298 297 294 292 290 289 289 289 289 289 290 290 291 292
280 280 280 280 280 279 279 278 278 277 277 277 278 278 278 278 278 277 277 277 278 278 276 275 274 274 274 273 271 270 268 266 264 262 261 260 258 256 250 245 243 241 238 235 238 245 250 249 250 254 255 254 253 250 248 249 252 254 259 264 269 276 282 287 291 294 295 296 297 299 300 300 298 295 293 291 291 290 289 288 289 291 293 295 297
284 283 283 282 281 280 279 279 278 277 278 280 281 282 283 282 282 280 278 277 278 278 279 278 277 276 275 274 272 270 267 265 262 259 258 256 255 254 252 249 248 247 245 240 235 235 239 242 242 245 250 252 253 253 251 252 254 256 259 263 267 272 280 288 293 294 293 293 295 297 299 298 296 294 294 293 291 288 287 287 290 294 298 302 304
284 284 283 282 281 279 279 278 278 279 282 284 286 287 287 285 284 284 284 283 281 280 279 279 279 277 275 273 271 268 265 261 258 255 253 251 251 251 252 254 253 251 249 243 234 231 237 243 242 244 251 255 256 254 252 252 254 256 259 264 269 274 281 288 291 290 288 289 293 295 295 294 293 291 291 289 284 281 282 287 293 299 304 309 311
282 282 282 281 280 280 280 280 281 283 286 288 290 290 289 289 289 288 287 286 285 284 283 282 281 279 275 271 268 264 261 258 254 250 247 245 246 248 249 252 253 252 250 244 234 228 230 237 239 240 244 249 249 248 247 249 255 260 267 274 279 282 286 288 286 283 284 288 292 293 292 290 289 287 284 279 274 274 281 289 296 302 307 313 318
286 286 285 284 283 283 283 283 285 287 289 291 293 293 293 293 292 291 291 291 290 289 288 286 283 279 274 269 265 261 258 255 250 245 240 237 239 243 244 245 247 249 250 247 236 228 227 230 231 232 237 245 249 249 253 262 269 273 277 282 285 286 286 284 279 278 284 289 289 288 287 286 284 281 275 268 267 273 283 291 298 304 308 315 323
292 290 288 286 285 285 285 287 288 290 291 293 294 295 295 295 295 296 296 295 294 293 292 289 284 276 268 263 259 257 255 251 245 238 232 231 233 236 236 238 243 247 249 248 240 232 229 229 225 224 234 244 247 249 260 275 280 279 279 281 283 283 280 274 272 277 284 286 284 282 282 281 278 272 263 260 265 276 286 294 299 305 309 316 325
291 289 287 287 288 288 290 291 292 292 294 295 296 297 299 301 302 302 301 301 302 302 301 296 286 273 262 258 256 253 251 248 239 229 224 223 223 226 228 232 237 240 240 242 241 236 233 232 230 231 239 248 251 257 268 276 276 273 274 277 278 276 272 269 274 282 286 282 278 276 276 274 269 261 255 258 267 279 289 296 301 306 311 315 321
296 295 294 295 294 294 295 295 294 295 297 298 300 305 309 310 310 309 308 311 313 313 314 318 306 266 249 260 258 247 242 235 224 215 212 212 212 213 215 219 225 228 228 231 236 237 236 235 235 238 245 254 259 263 266 267 265 264 267 270 272 272 271 275 282 287 285 278 272 270 269 265 259 252 251 258 269 282 291 297 302 307 312 314 318
306 304 303 302 301 300 300 300 299 302 304 305 312 319 321 321 321 318 317 321 325 323 353 60 63 69 74 64 126 190 207 215 211 208 207 207 207 208 210 215 224 231 231 230 232 232 231 232 236 241 248 256 261 263 262 262 262 263 265 266 269 271 274 279 286 287 281 271 264 262 261 256 249 246 250 258 270 282 291 297 302 307 311 313 317
309 309 309 311 312 312 313 312 312 314 314 317 327 334 335 333 332 327 320 327 339 341 6 92 82 50 357 146 172 180 193 213 215 213 213 213 211 211 214 219 226 234 238 237 235 231 229 229 234 239 244 249 254 258 258 257 258 260 263 264 266 270 276 283 286 282 271 259 255 254 252 248 244 244 249 258 269 280 289 296 301 306 310 313 318
309 311 316 320 322 324 327 329 328 327 327 331 341 349 349 345 342 338 330 331 344 353 347 185 214 253 272 259 241 245 254 255 254 249 237 228 221 218 219 222 225 231 238 235 224 219 221 226 231 235 239 243 248 251 250 249 250 254 258 261 266 273 279 282 279 269 256 248 247 246 244 241 241 243 248 257 267 277 286 293 299 305 310 314 321
309 314 319 325 328 331 337 340 340 338 337 342 352 0 3 359 353 350 349 343 336 332 304 244 235 242 254 260 260 263 265 263 262 259 252 245 237 228 223 222 219 217 216 212 209 213 223 229 231 234 240 245 247 246 245 244 246 251 257 264 271 276 277 273 264 252 243 240 240 240 239 238 238 242 248 256 264 274 283 290 296 304 310 315 322
313 317 322 327 332 338 343 347 348 347 345 348 356 4 10 11 8 6 5 0 353 338 299 261 246 247 257 261 265 272 275 270 265 260 254 249 243 235 225 218 213 209 205 205 211 223 231 232 231 234 239 242 243 243 243 246 251 257 264 270 272 272 267 258 248 240 235 234 235 236 236 236 238 242 248 255 263 272 280 286 292 300 306 313 322
315 319 323 329 336 342 345 350 354 354 351 352 356 2 8 14 16 16 15 10 1 343 313 284 275 281 291 294 302 315 320 315 296 272 252 238 234 230 221 214 211 211 210 212 219 229 234 231 229 232 238 242 243 243 247 253 260 266 270 271 268 262 254 245 237 232 230 232 234 235 235 237 239 243 248 254 262 270 276 281 287 293 301 310 321
313 316 322 329 337 342 346 350 356 359 358 356 356 357 1 7 12 16 18 17 10 357 338 314 301 304 313 318 317 316 317 319 313 280 222 198 203 221 214 210 210 211 212 217 225 230 228 222 222 230 239 243 243 246 255 263 268 272 272 268 260 251 242 235 230 229 230 233 235 236 237 239 241 244 248 254 260 267 273 277 281 287 294 305 316
308 311 320 329 335 340 343 346 353 359 3 3 2 359 357 357 360 4 9 14 15 12 2 345 328 320 318 318 317 314 311 306 294 264 225 214 223 224 207 204 208 210 211 214 217 217 212 212 220 231 238 240 241 250 260 268 273 274 269 259 249 241 235 230 228 229 232 235 238 240 241 242 243 246 250 254 259 265 271 275 277 281 288 298 309
303 308 316 325 331 334 337 341 346 353 0 5 8 7 3 358 352 349 349 354 3 10 11 4 356 349 344 338 330 327 326 322 307 279 247 234 235 232 214 200 197 198 201 205 207 204 204 210 218 225 230 235 242 252 262 269 273 270 260 248 240 235 231 229 229 232 236 240 242 244 245 246 247 249 252 255 259 264 269 272 274 276 282 290 302
299 306 313 319 326 330 333 337 342 348 354 360 5 9 11 10 5 356 346 338 336 341 348 352 354 359 4 1 347 332 323 321 323 319 286 247 238 237 233 221 209 202 201 203 203 203 204 208 213 219 227 235 244 253 261 267 268 261 249 240 236 232 230 230 232 236 241 245 247 249 251 251 252 253 254 257 260 264 268 270 271 272 276 283 292
Height
5759 5759 5760 5760 5761 5761 5761 5761 5761 5762 5762 5762 5763 5763 5764 5764 5764 5765 5766 5767 5768 5769 5769 5770 5769 5769 5769 5769 5769 5770 5770 5770 5770 5771 5771 5770 5770 5770 5771 5771 5771 5771 5771 5771 5771 5771 5771 5771 5770 5770 5770 5770 5770 5770 5770 5769 5770 5770 5770 5770 5771 5771 5771 5772 5772 5773 5773 5773 5773 5772 5772 5772 5772 5771 5771 5771 5771 5771 5771 5770 5770 5770 5770 5769 5769
5754 5755 5755 5756 5757 5757 5757 5757 5757 5758 5758 5758 5759 5760 5760 5761 5761 5762 5764 5765 5766 5767 5767 5767 5767 5767 5768 5768 5768 5768 5769 5769 5769 5769 5769 5768 5768 5768 5768 5768 5769 5769 5769 5769 5769 5769 5770 5769 5769 5768 5768 5768 5768 5768 5768 5767 5767 5768 5769 5769 5769 5769 5769 5769 5770 5770 5770 5771 5771 5771 5770 5770 5770 5770 5769 5769 5769 5768 5768 5768 5768 5768 5767 5767 5767
5750 5750 5751 5753 5754 5754 5754 5754 5753 5753 5753 5754 5755 5756 5757 5758 5759 5761 5762 5763 5764 5765 5766 5766 5766 5766 5766 5767 5767 5768 5768 5768 5767 5767 5767 5767 5767 5767 5767 5767 5767 5767 5767 5768 5768 5768 5768 5768 5768 5767 5766 5766 5767 5767 5766 5765 5765 5766 5767 5767 5767 5767 5767 5767 5768 5767 5767 5767 5768 5768 5768 5768 5767 5767 5767 5767 5767 5766 5766 5766 5765 5765 5765 5764 5763
5746 5746 5748 5750 5750 5750 5749 5748 5747 5747 5748 5750 5751 5753 5755 5756 5758 5759 5761 5762 5763 5763 5764 5764 5764 5764 5765 5766 5766 5766 5766 5766 5766 5766 5766 5766 5765 5765 5765 5765 5766 5766 5766 5766 5767 5767 5767 5766 5766 5765 5765 5765 5765 5765 5765 5764 5764 5764 5764 5765 5765 5765 5764 5764 5765 5765 5765 5765 5765 5765 5766 5765 5765 5765 5765 5765 5764 5764 5764 5763 5763 5763 5762 5762 5761
5743 5744 5744 5746 5746 5746 5745 5743 5743 5744 5745 5747 5748 5750 5752 5754 5756 5757 5759 5760 5761 5762 5762 5762 5763 5763 5764 5765 5765 5765 5765 5764 5764 5764 5764 5764 5763 5763 5763 5764 5765 5765 5766 5766 5765 5765 5765 5764 5763 5763 5763 5763 5762 5762 5763 5763 5763 5762 5762 5762 5762 5763 5763 5762 5762 5762 5762 5762 5762 5762 5762 5762 5762 5762 5762 5762 5761 5761 5761 5760 5760 5760 5760 5759 5759
5740 5741 5741 5742 5742 5743 5743 5743 5743 5744 5745 5746 5747 5749 5750 5751 5753 5755 5756 5758 5759 5759 5760 5760 5761 5762 5763 5763 5763 5764 5763 5763 5762 5762 5762 5762 5762 5762 5762 5763 5764 5764 5764 5764 5764 5763 5763 5762 5762 5761 5761 5761 5760 5760 5760 5760 5760 5760 5759 5759 5759 5760 5760 5760 5760 5760 5759 5759 5759 5759 5759 5759 5758 5758 5758 5758 5758 5757 5757 5756 5756 5756 5756 5756 5755
5738 5739 5740 5740 5740 5740 5741 5741 5741 5742 5743 5745 5747 5748 5749 5750 5752 5753 5754 5755 5756 5756 5757 5758 5759 5759 5760 5761 5761 5761 5761 5761 5761 5761 5761 5761 5761 5761 5762 5762 5762 5761 5761 5762 5762 5761 5761 5761 5761 5760 5759 5759 5758 5758 5757 5757 5757 5757 5756 5756 5755 5755 5756 5756 5757 5757 5757 5756 5756 5756 5755 5755 5755 5755 5754 5754 5753 5753 5752 5752 5752 5751 5750 5750 5749
5737 5738 5739 5739 5739 5739 5740 5739 5738 5739 5741 5743 5745 5746 5747 5749 5750 5751 5752 5752 5753 5753 5754 5755 5756 5757 5758 5759 5759 5758 5758 5759 5759 5758 5758 5758 5758 5759 5760 5760 5759 5759 5759 5760 5759 5759 5759 5759 5759 5759 5758 5756 5756 5755 5755 5754 5754 5754 5754 5753 5752 5752 5752 5752 5752 5753 5753 5753 5753 5752 5752 5751 5751 5751 5750 5750 5749 5749 5748 5748 5747 5747 5746 5745 5744
5734 5735 5735 5735 5736 5737 5738 5737 5738 5738 5739 5741 5742 5744 5745 5746 5748 5749 5749 5750 5750 5751 5751 5753 5754 5755 5756 5756 5756 5756 5756 5756 5756 5755 5755 5755 5755 5757 5757 5757 5757 5756 5756 5757 5757 5756 5755 5755 5756 5756 5755 5754 5753 5752 5752 5751 5751 5751 5750 5750 5749 5749 5748 5748 5748 5748 5749 5749 5749 5749 5749 5748 5747 5746 5746 5745 5745 5745 5744 5743 5743 5742 5741 5740 5739
5732 5733 5733 5731 5732 5734 5735 5736 5736 5737 5738 5739 5740 5741 5742 5744 5745 5746 5747 5747 5748 5748 5749 5750 5751 5752 5753 5753 5753 5753 5752 5752 5753 5752 5752 5752 5753 5753 5754 5754 5753 5753 5753 5753 5753 5753 5752 5752 5752 5752 5751 5751 5750 5749 5748 5748 5748 5747 5747 5746 5745 5745 5744 5744 5744 5744 5744 5745 5744 5744 5744 5744 5743 5743 5742 5742 5741 5740 5739 5739 5738 5737 5736 5735 5734
5730 5732 5732 5731 5731 5732 5733 5734 5735 5736 5736 5737 5737 5738 5739 5741 5742 5743 5743 5744 5745 5746 5746 5747 5748 5749 5749 5750 5750 5749 5749 5749 5749 5749 5749 5749 5749 5750 5750 5750 5750 5750 5749 5749 5749 5748 5748 5748 5748 5747 5747 5747 5746 5745 5745 5744 5743 5743 5743 5742 5741 5741 5740 5740 5739 5739 5739 5739 5739 5739 5739 5739 5739 5739 5738 5737 5736 5735 5734 5734 5733 5732 5732 5731 5729
5727 5729 5730 5731 5731 5731 5732 5733 5733 5733 5734 5734 5734 5735 5735 5737 5738 5739 5740 5741 5742 5742 5743 5744 5744 5745 5746 5746 5746 5745 5745 5745 5744 5744 5745 5745 5745 5746 5746 5746 5746 5746 5746 5745 5745 5744 5743 5743 5743 5743 5742 5742 5741 5741 5740 5739 5739 5738 5738 5738 5737 5737 5736 5735 5735 5734 5734 5734 5734 5734 5734 5734 5734 5733 5733 5732 5731 5730 5729 5729 5728 5727 5726 5725 5725
5724 5725 5728 5730 5731 5730 5731 5732 5732 5732 5732 5732 5733 5733 5732 5732 5734 5735 5736 5737 5738 5738 5739 5739 5740 5741 5741 5741 5741 5741 5741 5740 5740 5740 5740 5740 5740 5741 5741 5741 5741 5741 5741 5741 5741 5740 5739 5738 5738 5738 5738 5737 5737 5736 5735 5735 5734 5734 5733 5733 5733 5733 5732 5731 5731 5730 5730 5730 5729 5728 5728 5728 5728 5727 5727 5726 5725 5724 5724 5723 5722 5721 5720 5719 5718
5721 5723 5724 5727 5728 5728 5729 5730 5731 5731 5731 5730 5730 5730 5728 5729 5730 5731 5732 5733 5733 5733 5734 5734 5735 5735 5736 5737 5737 5736 5736 5735 5735 5735 5735 5735 5735 5735 5735 5735 5735 5736 5736 5736 5735 5735 5735 5734 5733 5733 5733 5732 5731 5731 5730 5730 5730 5730 5729 5729 5729 5728 5728 5726 5726 5725 5725 5724 5724 5723 5723 5723 5722 5722 5721 5720 5719 5718 5717 5717 5716 5715 5715 5713 5712
5718 5718 5719 5721 5722 5722 5724 5725 5725 5726 5726 5725 5726 5726 5725 5725 5725 5726 5727 5727 5727 5728 5728 5728 5729 5730 5731 5732 5732 5731 5731 5730 5730 5730 5730 5730 5729 5730 5730 5729 5729 5729 5730 5730 5730 5729 5729 5729 5728 5728 5727 5727 5727 5726 5725 5726 5725 5725 5725 5724 5724 5723 5722 5721 5720 5720 5719 5719 5718 5718 5717 5717 5716 5716 5715 5714 5713 5712 5712 5711 5710 5709 5709 5707 5706
5713 5714 5714 5715 5715 5715 5716 5717 5718 5719 5719 5720 5720 5721 5720 5720 5720 5720 5721 5721 5722 5722 5722 5723 5724 5724 5725 5726 5726 5726 5725 5724 5724 5724 5724 5723 5723 5723 5723 5723 5723 5723 5723 5724 5724 5723 5723 5723 5723 5722 5721 5721 5721 5720 5721 5721 5720 5720 5720 5720 5719 5718 5717 5716 5715 5713 5713 5713 5712 5712 5711 5711 5711 5710 5709 5708 5708 5707 5706 5705 5704 5703 5702 5701 5699
5708 5709 5709 5709 5710 5710 5711 5711 5712 5713 5713 5713 5714 5715 5715 5715 5715 5715 5715 5716 5716 5716 5717 5718 5718 5719 5719 5719 5720 5720 5719 5718 5718 5718 5718 5717 5717 5716 5716 5716 5716 5716 5717 5718 5718 5717 5716 5716 5716 5716 5715 5715 5714 5714 5715 5715 5715 5715 5715 5714 5713 5713 5712 5711 5709 5708 5707 5707 5707 5706 5706 5705 5705 5704 5703 5703 5702 5701 5700 5699 5698 5697 5695 5694 5693
5703 5704 5704 5705 5706 5707 5707 5707 5707 5707 5707 5707 5707 5708 5708 5708 5708 5709 5709 5710 5711 5711 5711 5711 5711 5712 5712 5712 5712 5713 5712 5711 5711 5711 5711 5710 5710 5709 5709 5709 5709 5710 5711 5712 5711 5710 5710 5709 5709 5709 5708 5708 5708 5708 5708 5708 5709 5708 5708 5707 5707 5706 5706 5705 5704 5703 5702 5702 5701 5701 5700 5699 5699 5698 5697 5696 5696 5695 5694 5693 5692 5690 5689 5687 5686
5698 5698 5699 5699 5701 5701 5702 5702 5701 5701 5701 5701 5700 5701 5701 5701 5702 5702 5702 5702 5703 5703 5704 5704 5704 5704 5705 5705 5705 5706 5706 5705 5704 5704 5704 5703 5702 5702 5701 5701 5701 5703 5704 5705 5705 5704 5704 5703 5702 5702 5702 5702 5702 5702 5702 5702 5702 5702 5701 5701 5700 5699 5699 5699 5698 5697 5697 5696 5695 5694 5694 5693 5693 5692 5691 5690 5690 5689 5687 5686 5685 5683 5682 5680 5679
5693 5694 5693 5694 5695 5695 5695 5695 5695 5695 5695 5694 5694 5694 5694 5694 5694 5693 5693 5693 5693 5694 5694 5695 5696 5697 5697 5698 5698 5698 5697 5697 5697 5696 5696 5695 5695 5694 5693 5693 5693 5696 5698 5698 5697 5697 5697 5696 5695 5694 5694 5695 5695 5695 5695 5695 5694 5694 5694 5694 5693 5692 5692 5692 5691 5691 5690 5689 5689 5688 5687 5686 5686 5685 5685 5684 5683 5682 5680 5679 5678 5677 5675 5673 5672
5688 5688 5689 5689 5689 5689 5689 5689 5689 5689 5689 5689 5689 5688 5687 5687 5686 5686 5685 5685 5685 5685 5685 5686 5687 5688 5689 5690 5691 5690 5690 5689 5689 5688 5688 5688 5687 5686 5685 5684 5685 5688 5691 5690 5689 5689 5688 5688 5687 5686 5687 5687 5687 5687 5687 5687 5686 5686 5686 5687 5686 5685 5684 5684 5684 5684 5683 5682 5682 5681 5680 5679 5679 5679 5678 5677 5676 5674 5673 5672 5670 5669 5668 5666 5664
5683 5683 5683 5683 5683 5684 5684 5684 5684 5684 5684 5684 5683 5683 5681 5681 5680 5679 5679 5678 5678 5678 5678 5678 5679 5679 5680 5682 5683 5683 5683 5683 5682 5681 5680 5680 5679 5678 5677 5675 5676 5680 5682 5682 5681 5680 5679 5678 5678 5679 5679 5678 5678 5678 5678 5678 5679 5679 5679 5679 5679 5678 5677 5676 5676 5676 5676 5676 5675 5674 5673 5672 5672 5672 5672 5670 5669 5668 5666 5665 5664 5662 5660 5659 5657
5677 5677 5677 5677 5677 5678 5678 5678 5678 5679 5678 5678 5678 5677 5676 5675 5674 5673 5672 5672 5672 5671 5671 5670 5671 5671 5671 5672 5673 5674 5675 5675 5675 5674 5673 5672 5671 5670 5669 5666 5666 5670 5673 5674 5673 5672 5672 5670 5668 5669 5669 5668 5668 5669 5669 5670 5670 5670 5670 5670 5670 5670 5670 5669 5669 5669 5668 5669 5669 5667 5666 5666 5665 5664 5664 5663 5662 5661 5660 5658 5657 5655 5654 5652 5650
5670 5670 5670 5670 5670 5671 5671 5671 5671 5671 5671 5671 5671 5670 5669 5668 5667 5666 5665 5665 5664 5664 5663 5662 5662 5662 5663 5663 5663 5664 5667 5667 5665 5664 5665 5664 5663 5662 5660 5658 5657 5659 5663 5665 5664 5664 5665 5665 5661 5659 5660 5660 5660 5661 5661 5661 5661 5661 5661 5661 5661 5661 5661 5661 5661 5661 5660 5660 5661 5660 5659 5659 5657 5656 5656 5655 5655 5653 5652 5651 5649 5648 5646 5644 5642
5663 5662 5662 5662 5663 5663 5663 5663 5663 5663 5663 5663 5662 5661 5660 5659 5658 5657 5656 5655 5655 5654 5654 5653 5652 5652 5653 5653 5652 5654 5657 5658 5656 5654 5655 5656 5654 5653 5652 5651 5649 5649 5652 5656 5656 5655 5656 5657 5654 5652 5652 5653 5653 5653 5653 5653 5653 5653 5653 5653 5653 5653 5653 5653 5652 5652 5652 5652 5653 5652 5651 5650 5649 5648 5648 5647 5646 5645 5644 5643 5641 5640 5639 5637 5635
5655 5655 5654 5655 5655 5654 5654 5654 5654 5654 5654 5653 5653 5652 5651 5650 5649 5648 5646 5644 5643 5643 5643 5642 5642 5641 5641 5642 5641 5642 5644 5646 5646 5645 5645 5646 5645 5644 5643 5642 5641 5641 5643 5646 5647 5646 5647 5648 5648 5648 5647 5647 5646 5646 5646 5646 5645 5645 5645 5645 5646 5646 5645 5645 5645 5645 5645 5645 5645 5644 5643 5643 5642 5641 5640 5639 5638 5638 5636 5635 5634 5633 5632 5631 5629
5647 5647 5647 5647 5646 5646 5645 5645 5645 5644 5644 5643 5643 5642 5641 5640 5639 5638 5636 5634 5633 5633 5632 5632 5631 5631 5630 5630 5630 5630 5631 5633 5634 5635 5635 5635 5635 5635 5634 5634 5634 5634 5634 5636 5638 5639 5639 5641 5642 5641 5641 5640 5639 5639 5639 5639 5639 5639 5639 5639 5639 5639 5639 5639 5639 5638 5638 5637 5637 5637 5636 5636 5635 5634 5633 5632 5631 5631 5630 5628 5627 5626 5625 5624 5622
5639 5638 5638 5637 5637 5636 5636 5635 5635 5634 5634 5633 5632 5631 5630 5629 5629 5628 5627 5625 5623 5622 5622 5622 5621 5620 5620 5619 5619 5619 5620 5621 5622 5624 5624 5624 5627 5628 5626 5625 5627 5628 5627 5628 5630 5631 5632 5633 5633 5634 5633 5633 5633 5632 5632 5633 5633 5632 5633 5633 5634 5634 5633 5633 5633 5632 5631 5631 5631 5630 5630 5630 5629 5628 5627 5626 5625 5624 5623 5621 5620 5618 5617 5615 5614
5630 5629 5628 5628 5627 5626 5626 5625 5625 5624 5624 5623 5621 5620 5619 5618 5618 5617 5615 5613 5612 5611 5612 5612 5611 5609 5609 5609 5609 5609 5610 5610 5610 5611 5612 5614 5619 5622 5619 5615 5617 5619 5619 5619 5621 5624 5625 5625 5626 5626 5626 5625 5625 5625 5626 5627 5626 5626 5627 5628 5628 5628 5628 5627 5627 5626 5626 5626 5625 5625 5624 5624 5623 5622 5621 5619 5618 5617 5616 5614 5613 5611 5609 5607 5606
5621 5620 5619 5618 5618 5617 5616 5615 5615 5614 5613 5612 5611 5610 5608 5607 5607 5606 5605 5602 5600 5600 5601 5601 5600 5599 5599 5599 5598 5598 5600 5600 5599 5600 5602 5603 5607 5611 5610 5607 5607 5610 5611 5612 5614 5616 5618 5620 5621 5620 5617 5617 5618 5619 5620 5620 5620 5619 5621 5622 5622 5622 5622 5622 5622 5621 5621 5621 5620 5620 5619 5618 5617 5616 5614 5613 5611 5610 5609 5607 5606 5604 5602 5600 5598
5614 5612 5611 5611 5610 5609 5608 5606 5606 5605 5604 5603 5603 5601 5599 5597 5596 5596 5596 5594 5592 5590 5590 5590 5590 5589 5589 5589 5589 5589 5590 5591 5590 5590 5591 5593 5596 5598 5598 5598 5600 5602 5604 5605 5607 5608 5610 5613 5616 5614 5611 5610 5612 5613 5614 5614 5614 5613 5615 5616 5617 5617 5618 5617 5617 5617 5617 5616 5615 5615 5614 5612 5611 5609 5608 5606 5604 5603 5601 5600 5599 5597 5595 5594 5592
5606 5605 5604 5603 5601 5600 5599 5598 5597 5596 5595 5594 5593 5593 5591 5589 5587 5585 5585 5585 5584 5583 5581 5580 5579 5579 5579 5580 5580 5579 5580 5581 5581 5581 5581 5582 5585 5586 5588 5589 5592 5594 5595 5597 5599 5600 5603 5606 5608 5608 5606 5606 5607 5608 5608 5608 5608 5608 5609 5611 5612 5612 5613 5612 5612 5612 5611 5610 5610 5609 5607 5606 5604 5602 5601 5599 5598 5596 5595 5594 5593 5591 5590 5588 5587
5597 5596 5595 5594 5593 5592 5591 5590 5589 5588 5587 5586 5585 5584 5583 5583 5581 5579 5577 5576 5575 5575 5574 5573 5571 5571 5571 5571 5571 5571 5571 5572 5572 5573 5573 5573 5575 5577 5578 5580 5582 5583 5586 5589 5592 5594 5597 5599 5600 5600 5600 5601 5602 5602 5602 5603 5603 5604 5605 5606 5607 5607 5607 5607 5607 5606 5605 5604 5603 5602 5601 5600 5598 5597 5595 5594 5593 5591 5590 5589 5588 5587 5586 5584 5582
5589 5588 5587 5586 5585 5584 5583 5582 5581 5580 5580 5579 5578 5578 5577 5576 5575 5574 5572 5570 5568 5567 5566 5565 5565 5564 5563 5562 5562 5562 5562 5563 5564 5565 5565 5566 5568 5569 5570 5572 5573 5575 5578 5582 5586 5589 5591 5593 5594 5594 5594 5595 5596 5596 5596 5598 5599 5600 5600 5601 5602 5602 5602 5602 5601 5601 5600 5599 5598 5597 5596 5595 5593 5592 5591 5590 5589 5588 5587 5586 5585 5584 5582 5580 5578
5581 5581 5580 5579 5578 5577 5577 5576 5575 5575 5574 5574 5573 5572 5571 5570 5569 5568 5567 5566 5564 5561 5558 5557 5557 5556 5554 5553 5553 5553 5553 5554 5556 5557 5559 5560 5561 5562 5563 5565 5567 5569 5571 5575 5579 5582 5585 5587 5589 5588 5588 5589 5589 5590 5591 5593 5594 5595 5596 5596 5597 5598 5598 5597 5597 5596 5596 5594 5593 5593 5592 5591 5590 5588 5587 5586 5586 5585 5584 5583 5582 5581 5579 5577 5575
5576 5575 5574 5574 5573 5572 5572 5571 5571 5570 5570 5569 5568 5567 5566 5564 5563 5562 5560 5558 5557 5554 5551 5548 5547 5545 5544 5543 5542 5542 5542 5543 5545 5548 5550 5552 5554 5555 5558 5559 5561 5563 5564 5567 5570 5575 5579 5582 5583 5582 5582 5582 5583 5584 5586 5587 5588 5589 5590 5591 5592 5593 5593 5593 5592 5591 5591 5590 5590 5589 5589 5588 5587 5586 5585 5584 5583 5583 5582 5581 5580 5578 5577 5574 5571
5571 5571 5570 5570 5569 5568 5568 5567 5567 5566 5565 5565 5563 5562 5561 5559 5557 5555 5553 5550 5548 5545 5542 5539 5536 5534 5532 5531 5531 5531 5531 5532 5534 5537 5541 5544 5547 5549 5552 5554 5555 5556 5557 5559 5563 5568 5573 5576 5577 5577 5577 5578 5578 5579 5581 5582 5583 5584 5585 5586 5587 5587 5588 5588 5587 5587 5586 5586 5586 5585 5585 5585 5584 5583 5582 5581 5581 5580 5580 5579 5577 5576 5574 5571 5568
5568 5567 5567 5566 5565 5565 5564 5563 5563 5562 5561 5560 5559 5557 5555 5553 5551 5548 5545 5541 5538 5534 5531 5528 5525 5523 5522 5521 5521 5521 5522 5523 5525 5528 5532 5536 5540 5544 5546 5548 5550 5550 5551 5553 5557 5561 5565 5569 5571 5572 5573 5574 5573 5574 5576 5577 5578 5579 5580 5581 5582 5582 5583 5583 5583 5583 5582 5582 5582 5582 5582 5581 5581 5580 5579 5579 5579 5578 5577 5576 5575 5573 5571 5569 5566
5565 5564 5564 5563 5562 5561 5561 5560 5559 5558 5557 5556 5554 5552 5550 5548 5545 5541 5536 5532 5528 5524 5521 5518 5516 5514 5513 5513 5513 5514 5515 5516 5518 5521 5526 5530 5534 5537 5540 5543 5544 5546 5547 5549 5551 5554 5558 5562 5566 5567 5568 5568 5568 5569 5571 5572 5574 5575 5576 5577 5577 5578 5578 5578 5579 5579 5579 5578 5578 5578 5578 5578 5577 5577 5577 5576 5576 5576 5575 5574 5572 5571 5569 5567 5564
5562 5562 5561 5560 5559 5558 5558 5557 5556 5555 5553 5552 5550 5548 5545 5542 5538 5533 5528 5524 5521 5517 5514 5511 5509 5507 5508 5508 5509 5510 5510 5511 5514 5517 5521 5525 5528 5532 5535 5538 5540 5541 5543 5545 5547 5549 5552 5556 5560 5562 5562 5562 5563 5564 5567 5569 5570 5571 5572 5573 5574 5574 5574 5575 5575 5575 5575 5574 5575 5575 5574 5574 5574 5574 5574 5574 5574 5573 5572 5571 5570 5568 5567 5565 5562
5560 5559 5558 5557 5556 5555 5555 5553 5552 5551 5550 5548 5546 5543 5540 5535 5531 5527 5523 5520 5517 5514 5511 5508 5506 5506 5506 5507 5508 5508 5508 5509 5512 5515 5518 5521 5524 5527 5531 5533 5535 5537 5540 5542 5544 5546 5548 5552 5555 5556 5556 5557 5559 5561 5563 5565 5566 5567 5568 5569 5570 5570 5570 5571 5572 5571 5571 5570 5571 5571 5571 5571 5571 5571 5571 5571 5571 5571 5570 5569 5567 5566 5564 5563 5561
5557 5557 5556 5555 5554 5553 5552 5551 5549 5548 5546 5544 5542 5539 5535 5530 5526 5523 5521 5519 5516 5513 5511 5510 5509 5508 5509 5509 5509 5509 5509 5510 5512 5515 5517 5520 5522 5525 5528 5530 5531 5533 5536 5539 5541 5542 5545 5548 5551 5552 5553 5554 5556 5557 5559 5560 5562 5563 5564 5565 5566 5566 5567 5567 5568 5567 5567 5567 5567 5567 5567 5568 5568 5568 5569 5569 5569 5568 5568 5566 5565 5564 5562 5561 5559
5556 5555 5554 5553 5552 5551 5549 5548 5546 5545 5543 5541 5539 5535 5531 5527 5524 5522 5520 5518 5516 5514 5513 5512 5511 5511 5511 5511 5511 5511 5512 5513 5514 5516 5518 5520 5522 5524 5526 5527 5528 5530 5532 5534 5536 5539 5542 5545 5547 5548 5549 5551 5553 5554 5555 5556 5557 5558 5560 5561 5562 5562 5562 5563 5563 5563 5563 5563 5563 5564 5564 5565 5565 5566 5566 5567 5566 5566 5565 5564 5563 5562 5560 5559 5557
5555 5554 5553 5551 5550 5549 5547 5546 5544 5542 5541 5539 5537 5533 5528 5525 5523 5521 5519 5517 5516 5515 5514 5513 5513 5512 5512 5512 5512 5513 5513 5514 5515 5516 5518 5520 5521 5523 5524 5525 5526 5527 5529 5531 5533 5536 5539 5541 5542 5544 5546 5548 5549 5550 5550 5552 5553 5555 5556 5557 5557 5558 5558 5558 5558 5558 5559 5559 5560 5561 5561 5562 5562 5563 5564 5564 5564 5564 5563 5562 5561 5560 5558 5557 5556
5554 5552 5551 5550 5549 5547 5546 5544 5542 5540 5539 5537 5535 5531 5528 5524 5522 5521 5519 5517 5516 5515 5514 5514 5514 5513 5513 5513 5513 5513 5514 5514 5515 5516 5517 5518 5519 5520 5521 5522 5524 5525 5527 5530 5532 5534 5536 5537 5539 5541 5543 5544 5545 5545 5547 5548 5550 5551 5552 5553 5553 5553 5553 5554 5554 5554 5555 5556 5557 5557 5558 5559 5560 5560 5561 5561 5561 5561 5561 5560 5559 5558 5557 5555 5554
5552 5551 5550 5548 5547 5546 5544 5543 5541 5539 5537 5535 5533 5531 5527 5525 5522 5520 5519 5517 5516 5515 5514 5514 5514 5514 5514 5514 5513 5513 5513 5513 5513 5513 5514 5515 5515 5516 5518 5520 5521 5523 5526 5528 5530 5531 5533 5535 5537 5539 5540 5540 5541 5543 5545 5546 5546 5547 5548 5548 5549 5549 5549 5550 5550 5551 5552 5553 5554 5555 5555 5556 5557 5558 5558 5559 5559 5559 5559 5558 5557 5556 5555 5554 5552
5551 5550 5549 5547 5546 5544 5543 5541 5539 5538 5536 5534 5532 5530 5528 5525 5523 5521 5519 5518 5517 5516 5515 5515 5515 5514 5514 5513 5513 5513 5512 5512 5511 5511 5511 5512 5512 5513 5514 5516 5519 5521 5523 5525 5527 5528 5530 5532 5534 5536 5537 5538 5539 5540 5542 5542 5543 5543 5544 5544 5545 5545 5546 5546 5547 5548 5549 5550 5551 5552 5553 5554 5554 5555 5556 5556 5557 5557 5556 5556 5556 5555 5554 5552 5551
5549 5548 5547 5546 5545 5543 5542 5540 5539 5537 5535 5533 5531 5530 5528 5526 5524 5522 5520 5519 5518 5517 5516 5515 5515 5514 5514 5513 5513 5512 5512 5511 5511 5510 5510 5511 5512 5512 5513 5515 5517 5520 5522 5524 5525 5526 5528 5530 5532 5533 5535 5536 5536 5538 5538 5539 5539 5540 5540 5541 5541 5542 5543 5544 5545 5546 5547 5548 5548 5549 5550 5551 5552 5552 5553 5554 5554 5554 5554 5554 5554 5553 5552 5551 5549
5548 5547 5546 5545 5544 5543 5541 5540 5538 5536 5534 5532 5531 5529 5528 5526 5525 5523 5521 5520 5519 5518 5516 5515 5514 5514 5513 5513 5512 5512 5511 5510 5510 5510 5510 5511 5512 5513 5514 5515 5517 5519 5521 5522 5524 5525 5526 5527 5529 5531 5533 5534 5534 5535 5536 5536 5537 5537 5538 5538 5539 5540 5540 5541 5542 5543 5544 5545 5546 5547 5547 5548 5549 5550 5550 5551 5551 5552 5552 5552 5551 5551 5550 5549 5548
5546 5546 5545 5544 5543 5542 5540 5539 5538 5536 5534 5532 5531 5529 5527 5526 5525 5523 5522 5520 5519 5518 5517 5516 5515 5514 5513 5512 5511 5511 5510 5510 5509 5509 5509 5510 5511 5512 5514 5515 5517 5518 5519 5521 5522 5523 5524 5525 5527 5529 5531 5531 5532 5532 5533 5534 5534 5535 5535 5536 5536 5537 5538 5539 5540 5541 5542 5543 5543 5544 5545 5545 5546 5547 5548 5548 5549 5549 5549 5549 5549 5549 5548 5547 5546
5545 5544 5543 5542 5541 5540 5539 5538 5537 5535 5534 5532 5531 5529 5527 5526 5525 5523 5522 5520 5519 5518 5517 5516 5515 5514 5513 5512 5511 5510 5510 5509 5509 5508 5508 5509 5510 5511 5513 5514 5515 5517 5518 5519 5521 5522 5523 5525 5526 5527 5528 5529 5529 5530 5531 5531 5532 5532 5533 5533 5534 5535 5536 5537 5538 5539 5540 5540 5541 5541 5542 5543 5544 5544 5545 5545 5546 5546 5546 5546 5546 5546 5546 5545 5545